Location: Newark
(41.6500°N, 71.4833°W)
Time: 17:33:34
(UTC+00:00)

A-11 Canister half - Pass Details

Date: 21 January 2020
Orbit: 1517 x 1683 km, 47.2° (Epoch: 21 February)

Event Time Altitude Azimuth Distance (km) Brightness Sun altitude
Rises 12:24:37 0° 296° (WNW) 4,667 10.8 2.0°
Reaches altitude 10° 12:27:50 10° 290° (WNW) 3,690 10.4 2.5°
Maximum altitude 12:36:17 41° 224° (SW) 2,103 9.7 3.9°
Drops below altitude 10° 12:44:57 10° 158° (SSE) 3,767 12.1 5.3°
Sets 12:48:17 0° 151° (SSE) 4,773 12.8 5.8°
